Time,TemperatureF,DewpointF,PressureIn,WindDirection,WindDirectionDegrees,WindSpeedMPH,WindSpeedGustMPH,Humidity,HourlyPrecipIn,Conditions,Clouds,dailyrainin,SoftwareType,DateUTC
2013-02-09 00:13:00,32.9,28.0,30.34,NE,48,2.0,7.0,81,0.00,,,0.00,weatherlink.com 1.10,2013-02-09 06:13:00,
2013-02-09 00:29:00,32.9,28.0,30.34,ENE,75,2.0,8.0,81,0.00,,,0.00,weatherlink.com 1.10,2013-02-09 06:29:00,
2013-02-09 00:44:00,32.7,28.0,30.34,NE,37,5.0,8.0,81,0.00,,,0.00,weatherlink.com 1.10,2013-02-09 06:44:00,
2013-02-09 00:59:00,32.8,28.0,30.34,East,85,3.0,9.0,81,0.00,,,0.00,weatherlink.com 1.10,2013-02-09 06:59:00,
2013-02-09 01:14:00,32.9,28.0,30.33,NE,41,4.0,10.0,82,0.00,,,0.00,weatherlink.com 1.10,2013-02-09 07:14:00,
2013-02-09 01:29:00,32.5,27.0,30.34,ENE,77,5.0,10.0,81,0.00,,,0.00,weatherlink.com 1.10,2013-02-09 07:29:00,
2013-02-09 01:44:00,32.5,27.0,30.35,East,79,6.0,9.0,81,0.00,,,0.00,weatherlink.com 1.10,2013-02-09 07:44:00,
2013-02-09 01:59:00,32.6,28.0,30.34,ENE,70,2.0,7.0,82,0.00,,,0.00,weatherlink.com 1.10,2013-02-09 07:59:00,
2013-02-09 02:14:00,32.6,27.0,30.34,ESE,109,8.0,11.0,81,0.00,,,0.00,weatherlink.com 1.10,2013-02-09 08:14:00,
2013-02-09 02:29:00,32.5,28.0,30.34,ENE,67,1.0,9.0,82,0.00,,,0.00,weatherlink.com 1.10,2013-02-09 08:29:00,
2013-02-09 02:44:00,32.4,28.0,30.34,East,85,3.0,7.0,82,0.00,,,0.00,weatherlink.com 1.10,2013-02-09 08:44:00,
2013-02-09 02:59:00,32.4,28.0,30.34,ENE,76,7.0,7.0,82,0.00,,,0.00,weatherlink.com 1.10,2013-02-09 08:59:00,
2013-02-09 03:14:00,32.4,28.0,30.35,NE,53,3.0,6.0,82,0.00,,,0.00,weatherlink.com 1.10,2013-02-09 09:14:00,
2013-02-09 03:29:00,32.4,28.0,30.35,NE,46,2.0,5.0,82,0.00,,,0.00,weatherlink.com 1.10,2013-02-09 09:29:00,
2013-02-09 03:44:00,32.3,27.0,30.36,East,97,2.0,8.0,82,0.00,,,0.00,weatherlink.com 1.10,2013-02-09 09:44:00,
2013-02-09 03:59:00,32.3,27.0,30.36,NE,48,1.0,3.0,81,0.00,,,0.00,weatherlink.com 1.10,2013-02-09 09:59:00,
2013-02-09 04:14:00,32.5,27.0,30.36,ENE,75,2.0,4.0,81,0.00,,,0.00,weatherlink.com 1.10,2013-02-09 10:14:00,
2013-02-09 04:29:00,32.5,27.0,30.36,NNE,19,1.0,4.0,81,0.00,,,0.00,weatherlink.com 1.10,2013-02-09 10:29:00,
2013-02-09 04:44:00,32.5,27.0,30.36,East,89,0.0,6.0,81,0.00,,,0.00,weatherlink.com 1.10,2013-02-09 10:44:00,
2013-02-09 04:59:00,32.5,27.0,30.35,ENE,73,1.0,5.0,81,0.00,,,0.00,weatherlink.com 1.10,2013-02-09 10:59:00,
2013-02-09 05:14:00,32.5,27.0,30.36,East,82,2.0,8.0,81,0.00,,,0.00,weatherlink.com 1.10,2013-02-09 11:14:00,
2013-02-09 05:29:00,32.5,27.0,30.35,NE,42,2.0,7.0,81,0.00,,,0.00,weatherlink.com 1.10,2013-02-09 11:29:00,
2013-02-09 05:44:00,32.4,27.0,30.35,ENE,70,8.0,9.0,81,0.00,,,0.00,weatherlink.com 1.10,2013-02-09 11:44:00,
2013-02-09 05:59:00,32.4,27.0,30.35,East,80,7.0,9.0,81,0.00,,,0.00,weatherlink.com 1.10,2013-02-09 11:59:00,
2013-02-09 06:14:00,32.4,27.0,30.35,East,86,8.0,8.0,81,0.00,,,0.00,weatherlink.com 1.10,2013-02-09 12:14:00,
2013-02-09 06:29:00,32.4,27.0,30.34,East,101,9.0,9.0,81,0.00,,,0.00,weatherlink.com 1.10,2013-02-09 12:29:00,
2013-02-09 06:44:00,32.3,27.0,30.34,ESE,106,3.0,10.0,82,0.00,,,0.00,weatherlink.com 1.10,2013-02-09 12:44:00,
2013-02-09 06:59:00,32.3,27.0,30.34,ESE,118,5.0,10.0,82,0.00,,,0.00,weatherlink.com 1.10,2013-02-09 12:59:00,
2013-02-09 07:14:00,32.3,27.0,30.34,East,93,8.0,12.0,82,0.00,,,0.00,weatherlink.com 1.10,2013-02-09 13:14:00,
2013-02-09 07:29:00,32.4,28.0,30.35,SE,145,5.0,10.0,82,0.00,,,0.00,weatherlink.com 1.10,2013-02-09 13:29:00,
2013-02-09 07:44:00,32.4,28.0,30.35,ESE,118,5.0,11.0,82,0.00,,,0.00,weatherlink.com 1.10,2013-02-09 13:44:00,
2013-02-09 07:59:00,32.5,28.0,30.35,SE,127,3.0,8.0,82,0.00,,,0.00,weatherlink.com 1.10,2013-02-09 13:59:00,
2013-02-09 08:14:00,32.5,27.0,30.36,SE,130,3.0,11.0,81,0.00,,,0.00,weatherlink.com 1.10,2013-02-09 14:14:00,
2013-02-09 08:29:00,32.6,27.0,30.36,SE,125,4.0,13.0,81,0.00,,,0.00,weatherlink.com 1.10,2013-02-09 14:29:00,
2013-02-09 08:44:00,32.9,27.0,30.36,SSE,154,5.0,10.0,80,0.00,,,0.00,weatherlink.com 1.10,2013-02-09 14:44:00,
2013-02-09 08:59:00,33.1,27.0,30.35,SE,127,8.0,12.0,79,0.00,,,0.00,weatherlink.com 1.10,2013-02-09 14:59:00,
2013-02-09 09:15:00,33.3,27.0,30.36,East,95,8.0,9.0,79,0.00,,,0.00,weatherlink.com 1.10,2013-02-09 15:15:00,
2013-02-09 09:29:00,33.8,28.0,30.36,SSE,151,5.0,9.0,79,0.00,,,0.00,weatherlink.com 1.10,2013-02-09 15:29:00,
2013-02-09 09:44:00,34.0,28.0,30.36,SE,139,9.0,9.0,78,0.00,,,0.00,weatherlink.com 1.10,2013-02-09 15:44:00,
2013-02-09 09:59:00,34.7,28.0,30.35,ESE,123,5.0,11.0,77,0.00,,,0.00,weatherlink.com 1.10,2013-02-09 15:59:00,
2013-02-09 10:14:00,35.4,29.0,30.35,SSE,147,2.0,9.0,76,0.00,,,0.00,weatherlink.com 1.10,2013-02-09 16:14:00,
2013-02-09 10:29:00,36.0,28.0,30.34,SE,135,3.0,12.0,74,0.00,,,0.00,weatherlink.com 1.10,2013-02-09 16:29:00,
2013-02-09 10:45:00,36.5,29.0,30.34,SSE,149,8.0,10.0,74,0.00,,,0.00,weatherlink.com 1.10,2013-02-09 16:45:00,
2013-02-09 10:59:00,37.1,29.0,30.33,SSE,164,6.0,7.0,73,0.00,,,0.00,weatherlink.com 1.10,2013-02-09 16:59:00,
2013-02-09 11:14:00,37.8,30.0,30.32,South,178,4.0,10.0,72,0.00,,,0.00,weatherlink.com 1.10,2013-02-09 17:14:00,
2013-02-09 11:29:00,38.5,29.0,30.31,SE,133,4.0,11.0,69,0.00,,,0.00,weatherlink.com 1.10,2013-02-09 17:29:00,
2013-02-09 11:45:00,39.2,29.0,30.30,SSE,160,2.0,7.0,68,0.00,,,0.00,weatherlink.com 1.10,2013-02-09 17:45:00,
2013-02-09 12:00:00,40.6,30.0,30.30,SE,141,5.0,6.0,66,0.00,,,0.00,weatherlink.com 1.10,2013-02-09 18:00:00,
2013-02-09 12:15:00,40.9,30.0,30.28,SW,227,1.0,8.0,66,0.00,,,0.00,weatherlink.com 1.10,2013-02-09 18:15:00,
2013-02-09 12:30:00,41.7,30.0,30.28,SSE,149,1.0,7.0,64,0.00,,,0.00,weatherlink.com 1.10,2013-02-09 18:30:00,
2013-02-09 12:45:00,41.8,30.0,30.27,SSE,162,0.0,6.0,63,0.00,,,0.00,weatherlink.com 1.10,2013-02-09 18:45:00,
2013-02-09 13:00:00,42.8,30.0,30.26,West,262,2.0,6.0,61,0.00,,,0.00,weatherlink.com 1.10,2013-02-09 19:00:00,
2013-02-09 13:15:00,43.3,30.0,30.25,SW,225,0.0,7.0,60,0.00,,,0.00,weatherlink.com 1.10,2013-02-09 19:15:00,
2013-02-09 13:30:00,43.7,30.0,30.24,SE,134,3.0,8.0,59,0.00,,,0.00,weatherlink.com 1.10,2013-02-09 19:30:00,
2013-02-09 13:45:00,44.2,29.0,30.24,SE,132,6.0,8.0,56,0.00,,,0.00,weatherlink.com 1.10,2013-02-09 19:45:00,
2013-02-09 14:00:00,45.2,30.0,30.22,East,79,2.0,7.0,56,0.00,,,0.00,weatherlink.com 1.10,2013-02-09 20:00:00,
2013-02-09 14:15:00,45.6,31.0,30.21,ESE,116,5.0,9.0,56,0.00,,,0.00,weatherlink.com 1.10,2013-02-09 20:15:00,
2013-02-09 14:30:00,45.6,30.0,30.21,East,93,3.0,8.0,55,0.00,,,0.00,weatherlink.com 1.10,2013-02-09 20:30:00,
2013-02-09 14:45:00,46.0,31.0,30.21,ENE,77,2.0,6.0,56,0.00,,,0.00,weatherlink.com 1.10,2013-02-09 20:45:00,
2013-02-09 15:00:00,45.8,31.0,30.19,ESE,104,1.0,5.0,57,0.00,,,0.00,weatherlink.com 1.10,2013-02-09 21:00:00,
2013-02-09 15:15:00,45.8,30.0,30.19,SE,137,4.0,9.0,54,0.00,,,0.00,weatherlink.com 1.10,2013-02-09 21:15:00,
2013-02-09 15:30:00,46.8,30.0,30.18,ESE,109,5.0,10.0,53,0.00,,,0.00,weatherlink.com 1.10,2013-02-09 21:30:00,
2013-02-09 15:46:00,46.8,30.0,30.17,SE,139,7.0,9.0,53,0.00,,,0.00,weatherlink.com 1.10,2013-02-09 21:46:00,
2013-02-09 16:01:00,47.1,31.0,30.17,ESE,107,5.0,10.0,53,0.00,,,0.00,weatherlink.com 1.10,2013-02-09 22:01:00,
2013-02-09 16:15:00,47.2,31.0,30.17,ESE,122,10.0,10.0,53,0.00,,,0.00,weatherlink.com 1.10,2013-02-09 22:15:00,
2013-02-09 16:30:00,46.9,30.0,30.16,SSE,155,6.0,9.0,53,0.00,,,0.00,weatherlink.com 1.10,2013-02-09 22:30:00,
2013-02-09 16:45:00,46.7,31.0,30.15,ESE,118,5.0,9.0,55,0.00,,,0.00,weatherlink.com 1.10,2013-02-09 22:45:00,
2013-02-09 17:01:00,46.5,31.0,30.15,SE,134,3.0,9.0,55,0.00,,,0.00,weatherlink.com 1.10,2013-02-09 23:01:00,
2013-02-09 17:15:00,46.0,31.0,30.13,ESE,104,5.0,9.0,56,0.00,,,0.00,weatherlink.com 1.10,2013-02-09 23:15:00,
2013-02-09 17:30:00,45.6,31.0,30.13,SE,141,5.0,8.0,57,0.00,,,0.00,weatherlink.com 1.10,2013-02-09 23:30:00,
2013-02-09 17:46:00,45.1,31.0,30.12,SE,143,4.0,7.0,59,0.00,,,0.00,weatherlink.com 1.10,2013-02-09 23:46:00,
2013-02-09 18:01:00,44.7,31.0,30.12,SE,132,2.0,6.0,60,0.00,,,0.00,weatherlink.com 1.10,2013-02-10 00:01:00,
2013-02-09 18:16:00,44.3,31.0,30.11,ESE,114,4.0,5.0,60,0.00,,,0.00,weatherlink.com 1.10,2013-02-10 00:16:00,
2013-02-09 18:31:00,44.0,31.0,30.11,SE,125,3.0,7.0,61,0.00,,,0.00,weatherlink.com 1.10,2013-02-10 00:31:00,
2013-02-09 18:46:00,44.0,31.0,30.11,ESE,111,2.0,8.0,61,0.00,,,0.00,weatherlink.com 1.10,2013-02-10 00:46:00,
2013-02-09 19:01:00,43.9,31.0,30.11,ESE,122,3.0,6.0,62,0.00,,,0.00,weatherlink.com 1.10,2013-02-10 01:01:00,
2013-02-09 19:16:00,44.1,32.0,30.11,SE,129,2.0,4.0,62,0.00,,,0.00,weatherlink.com 1.10,2013-02-10 01:16:00,
2013-02-09 19:31:00,44.0,32.0,30.11,ESE,109,1.0,5.0,62,0.00,,,0.00,weatherlink.com 1.10,2013-02-10 01:31:00,
2013-02-09 19:46:00,44.1,32.0,30.13,SE,131,0.0,3.0,63,0.00,,,0.00,weatherlink.com 1.10,2013-02-10 01:46:00,
2013-02-09 20:01:00,44.2,32.0,30.12,SE,131,0.0,3.0,63,0.00,,,0.00,weatherlink.com 1.10,2013-02-10 02:01:00,
2013-02-09 20:16:00,44.0,32.0,30.12,SE,131,2.0,4.0,64,0.00,,,0.00,weatherlink.com 1.10,2013-02-10 02:16:00,
2013-02-09 20:31:00,43.9,32.0,30.12,SE,131,0.0,3.0,64,0.00,,,0.00,weatherlink.com 1.10,2013-02-10 02:31:00,
2013-02-09 20:46:00,43.7,33.0,30.12,SE,131,0.0,1.0,65,0.00,,,0.00,weatherlink.com 1.10,2013-02-10 02:46:00,
2013-02-09 21:01:00,43.4,33.0,30.11,SE,131,0.0,0.0,66,0.00,,,0.00,weatherlink.com 1.10,2013-02-10 03:01:00,
2013-02-09 21:16:00,43.1,33.0,30.11,SE,131,0.0,0.0,68,0.00,,,0.00,weatherlink.com 1.10,2013-02-10 03:16:00,
2013-02-09 21:31:00,42.9,33.0,30.09,ESE,116,1.0,3.0,67,0.00,,,0.00,weatherlink.com 1.10,2013-02-10 03:31:00,
2013-02-09 21:46:00,43.0,33.0,30.10,ESE,116,0.0,2.0,67,0.00,,,0.00,weatherlink.com 1.10,2013-02-10 03:46:00,
2013-02-09 22:01:00,43.0,33.0,30.09,ESE,116,0.0,1.0,67,0.00,,,0.00,weatherlink.com 1.10,2013-02-10 04:01:00,
2013-02-09 22:16:00,42.9,34.0,30.09,ESE,116,2.0,3.0,70,0.00,,,0.00,weatherlink.com 1.10,2013-02-10 04:16:00,
2013-02-09 22:31:00,42.7,35.0,30.09,ESE,116,0.0,2.0,73,0.00,,,0.00,weatherlink.com 1.10,2013-02-10 04:31:00,
2013-02-09 22:46:00,42.4,35.0,30.08,ESE,116,0.0,2.0,76,0.01,,,0.01,weatherlink.com 1.10,2013-02-10 04:46:00,
2013-02-09 23:01:00,41.6,36.0,30.09,ESE,116,0.0,3.0,81,0.02,,,0.02,weatherlink.com 1.10,2013-02-10 05:01:00,
2013-02-09 23:16:00,41.0,36.0,30.07,ESE,115,2.0,4.0,83,0.03,,,0.03,weatherlink.com 1.10,2013-02-10 05:16:00,
2013-02-09 23:31:00,40.5,36.0,30.05,ESE,122,4.0,6.0,85,0.05,,,0.05,weatherlink.com 1.10,2013-02-10 05:31:00,
2013-02-09 23:46:00,40.3,37.0,30.04,ESE,114,3.0,4.0,86,0.04,,,0.05,weatherlink.com 1.10,2013-02-10 05:46:00,